Wind_Speed
22 23 23 21 17 15 15 16 17 18 19 22 23 24 26 29 32 28 8 10 7 7 7 7 6 3 1 3 4 3 3 4 5 6 6 3 3 3 1 2 2 2 1 1 17
21 21 21 22 23 24 17 15 17 18 18 20 21 22 26 32 28 16 12 14 10 7 5 3 3 2 2 2 2 4 4 9 6 5 5 5 4 3 2 3 3 2 1 4 17
21 21 21 22 22 24 23 23 17 17 18 18 20 23 23 28 7 3 8 8 6 9 6 4 3 2 3 1 4 6 6 5 4 6 3 3 2 4 5 4 7 7 5 9 15
20 20 22 22 24 25 24 25 26 20 17 18 18 21 22 10 6 3 12 11 7 6 6 2 2 3 4 6 4 3 7 5 3 3 3 3 2 3 6 5 1 5 5 12 15
21 22 21 23 23 25 25 24 25 24 25 19 18 17 14 5 10 17 18 9 8 4 5 5 4 4 5 4 4 4 4 6 6 3 4 2 6 5 7 9 3 4 5 12 14
23 22 22 23 24 23 25 25 26 25 26 28 18 16 9 13 11 12 11 13 6 5 4 7 6 6 4 4 6 4 5 3 4 4 4 4 5 6 7 5 10 7 9 9 13
21 22 23 23 24 24 25 27 27 27 27 27 25 19 11 19 23 31 31 25 15 14 4 10 6 5 3 3 6 2 3 3 6 5 5 6 9 10 12 4 6 9 10 9 13
22 22 22 24 24 26 26 28 28 28 28 26 24 21 13 10 26 29 31 32 25 20 17 10 9 5 4 2 3 3 1 2 3 8 4 9 18 6 8 8 15 12 8 8 12
23 23 23 23 22 25 26 28 30 35 31 25 16 7 18 9 8 20 21 19 9 17 10 6 5 5 3 5 2 2 3 5 7 11 4 8 6 6 2 7 10 8 8 11 11
26 25 24 25 25 26 27 29 33 27 14 9 9 4 3 9 6 4 6 15 8 4 3 5 3 5 3 6 11 5 4 5 7 4 3 4 12 13 7 4 9 7 8 8 10
26 26 24 25 25 24 28 26 8 5 12 10 19 16 6 6 9 2 1 4 6 2 9 4 5 16 16 16 6 6 5 7 4 5 5 8 11 17 11 5 10 12 11 11 13
26 25 25 25 23 20 19 3 5 8 16 18 21 26 35 33 20 9 4 5 6 17 7 5 23 11 8 7 12 6 6 7 4 3 5 3 12 15 7 8 10 17 15 14 10
24 24 26 24 19 14 7 5 7 24 7 12 15 18 13 23 26 22 10 7 9 15 22 26 4 15 13 9 16 18 18 5 3 1 3 5 8 10 8 7 7 13 16 12 15
24 24 23 23 11 2 2 3 16 16 3 9 5 7 8 7 16 23 33 14 10 17 18 20 24 13 12 19 17 19 8 6 4 1 4 2 6 6 6 10 7 11 13 18 18
23 23 22 15 7 3 2 11 16 2 4 10 5 11 20 9 5 6 34 21 29 12 12 10 13 16 13 15 15 7 9 13 7 4 2 4 3 6 4 8 15 14 16 17 14
23 21 20 14 11 8 6 8 3 6 6 7 3 9 15 20 23 7 5 11 15 15 13 16 3 18 13 5 16 8 8 6 4 3 4 11 9 7 10 10 10 8 8 9 9
23 20 17 12 2 4 4 3 4 4 6 8 4 13 17 27 24 16 13 19 16 20 21 16 10 5 6 7 9 6 12 2 1 2 9 2 7 17 8 7 7 9 6 6 6
22 19 18 15 12 10 5 1 4 8 8 9 12 17 18 15 13 17 12 15 24 19 5 15 11 17 5 9 8 13 16 7 8 5 3 2 9 6 14 16 8 9 7 7 8
22 18 11 11 11 15 2 4 6 8 4 5 16 14 16 3 8 12 15 17 13 28 6 15 15 1 9 5 14 8 14 8 6 2 3 5 8 7 13 15 8 8 7 10 9
13 11 8 8 7 11 4 13 5 3 4 3 11 5 21 19 11 7 10 8 14 21 20 4 3 7 10 4 5 16 13 7 1 5 4 5 5 6 6 9 7 9 10 10 7
5 3 3 2 10 2 4 6 6 6 5 5 8 12 18 19 17 18 11 23 11 11 19 5 4 1 8 12 20 5 14 6 5 4 8 2 6 7 8 3 5 7 6 5 6
2 2 2 15 2 1 3 6 4 10 6 9 7 12 16 20 21 16 21 9 6 4 17 20 3 5 14 7 1 7 10 10 11 8 2 2 5 1 5 6 6 5 6 5 5
2 3 8 3 3 2 5 4 3 6 14 5 6 6 11 17 12 10 17 6 8 7 2 13 9 10 3 3 3 15 11 23 0 3 8 7 4 2 4 6 6 6 6 6 6
2 2 2 2 2 4 2 6 5 4 13 8 14 14 19 20 18 11 9 3 8 2 11 7 6 4 14 16 7 2 13 18 12 5 12 14 3 3 7 7 6 6 6 6 6
3 3 4 2 4 6 5 4 6 7 7 4 6 10 11 13 17 7 6 2 4 6 3 4 6 5 6 7 6 6 7 8 18 18 8 7 4 5 5 4 3 4 5 7 5
2 2 2 3 2 6 10 11 15 20 6 6 10 16 10 12 13 8 5 2 1 1 1 2 1 6 6 12 5 3 5 8 10 17 10 4 5 4 3 5 5 6 7 7 6
8 11 6 13 3 5 6 11 17 12 11 18 16 14 13 14 15 6 6 7 4 2 2 3 3 2 2 6 6 3 4 3 7 8 16 8 4 3 5 6 4 5 7 7 7
Wind_Direction
14 17 17 5 345 333 333 338 338 340 343 342 340 335 335 334 321 322 280 275 267 302 270 288 273 257 231 104 113 137 84 212 226 171 236 181 192 174 198 200 237 208 147 7 154
3 6 4 2 356 1 335 321 326 329 333 339 341 335 334 333 322 290 311 279 260 251 275 270 257 192 307 159 126 127 162 216 203 207 241 181 181 172 156 189 240 256 125 129 158
358 359 351 351 350 352 346 350 316 316 320 327 333 338 335 336 312 258 10 14 279 248 251 276 258 200 234 183 207 176 203 209 243 220 233 243 227 175 152 236 222 203 178 172 175
350 345 346 346 343 341 338 344 342 324 307 314 323 331 337 345 285 101 351 338 321 266 224 253 205 209 205 213 192 206 225 184 248 217 175 232 299 234 185 219 292 212 157 172 186
357 353 347 341 340 340 336 331 333 332 335 303 310 323 343 350 256 284 315 324 315 278 227 172 200 163 207 216 145 235 234 180 231 260 248 312 253 249 249 241 229 103 169 178 191
350 349 348 344 341 336 331 333 329 326 330 329 299 307 304 273 262 289 312 329 302 264 236 194 202 204 241 227 192 220 219 238 223 202 222 223 257 154 256 239 230 217 205 204 198
339 339 340 337 338 336 333 326 325 326 315 313 314 288 245 249 269 284 290 283 284 300 250 231 225 180 166 258 230 210 254 304 229 204 228 163 277 228 232 186 221 224 230 214 217
329 329 331 331 331 331 330 325 323 309 303 297 301 292 267 270 278 264 275 278 267 265 255 256 218 196 193 253 360 204 194 213 268 160 239 150 253 271 261 189 238 233 239 228 227
326 323 326 326 327 329 327 323 314 302 293 284 287 266 277 274 259 276 264 244 266 251 241 247 171 192 134 139 322 282 222 219 306 196 145 183 255 255 251 192 248 245 241 236 243
329 323 322 322 324 328 326 322 311 310 314 250 233 291 240 261 252 260 281 240 214 174 226 200 182 178 171 163 213 195 220 236 222 215 171 215 259 264 264 231 254 260 255 245 241
327 325 319 318 320 327 328 342 9 343 21 316 294 278 310 264 287 210 185 164 242 248 186 207 190 209 188 196 178 184 198 210 231 232 167 218 249 261 257 220 258 258 247 243 243
320 322 318 316 314 320 322 31 8 326 297 250 270 277 268 279 279 273 170 169 194 219 183 190 229 208 177 192 203 182 194 229 286 169 178 240 259 255 239 242 210 242 247 236 236
320 316 317 311 306 309 339 1 346 339 295 280 240 247 239 216 243 244 198 202 219 223 213 220 192 181 186 188 202 219 219 166 225 134 226 327 273 257 250 236 227 238 241 241 231
321 319 312 316 309 253 4 357 336 333 327 289 257 271 222 221 263 224 229 215 219 224 219 236 232 194 198 212 190 218 158 152 157 83 241 133 284 269 250 250 230 239 237 241 235
320 316 315 290 282 271 294 326 332 89 351 287 320 330 326 188 318 224 219 202 224 206 188 215 174 189 216 219 184 208 151 187 171 177 28 208 286 262 266 254 255 246 235 239 232
319 311 317 307 276 258 279 328 358 50 255 285 295 1 351 323 308 296 200 224 216 221 224 222 271 196 205 149 186 136 96 61 62 103 267 227 197 235 224 215 247 242 236 238 233
319 311 306 300 251 219 243 70 39 136 295 271 283 326 323 307 314 247 247 209 215 202 223 205 219 285 146 120 160 169 152 72 70 191 238 335 197 248 249 239 240 248 223 220 193
321 313 296 283 276 213 140 110 180 228 235 296 311 317 307 328 329 349 237 220 220 229 210 215 205 198 201 196 177 183 179 163 180 198 197 130 235 241 232 263 244 238 229 248 251
323 319 302 284 266 197 155 237 200 209 265 311 323 302 298 336 317 306 267 239 228 216 212 201 225 80 191 160 150 188 205 169 101 11 82 217 288 270 255 257 245 245 209 237 231
330 318 282 275 219 169 210 250 234 226 327 307 282 242 292 312 301 336 335 268 233 223 202 270 203 199 189 125 218 183 168 172 315 150 233 262 270 239 296 271 266 243 213 232 220
311 305 263 247 170 186 232 228 234 243 224 208 263 275 282 301 295 302 265 288 288 216 207 215 202 328 142 207 190 144 187 195 128 170 187 213 255 218 239 31 248 262 220 208 178
288 294 162 143 138 291 194 201 235 278 233 256 258 263 267 279 281 277 269 272 305 280 212 211 275 146 206 202 270 192 188 186 194 217 226 144 272 319 290 275 256 4 90 83 111
230 233 192 186 215 248 305 296 246 262 267 252 260 257 294 284 291 264 293 238 277 24 13 197 210 191 3 294 251 202 209 200 160 115 206 167 252 312 35 45 30 79 52 90 95
258 302 291 223 157 148 150 260 241 255 262 251 256 270 281 270 261 263 274 269 300 72 10 347 233 259 200 211 143 209 206 204 206 183 209 219 204 354 10 34 41 56 67 78 96
226 229 187 253 265 222 205 225 239 275 237 168 285 243 274 298 313 209 217 240 248 345 39 346 14 20 293 326 194 179 195 197 216 229 187 213 188 249 50 64 46 94 94 105 103
273 157 234 247 182 189 227 248 260 265 227 262 250 280 279 279 289 309 304 229 285 82 320 313 22 357 32 360 2 270 341 219 216 231 251 134 206 115 111 87 80 93 102 103 108
234 237 207 250 194 183 209 238 254 256 253 243 255 273 274 290 289 235 291 306 263 164 201 227 146 81 43 329 329 223 250 271 267 228 223 201 196 192 107 129 138 114 108 104 105
Height
847 845 843 842 840 839 837 835 834 831 829 826 822 820 816 811 806 802 801 796 794 793 793 793 793 792 791 790 791 797 809 813 802 808 788 780 780 779 779 780 779 778 778 780 780
849 846 844 843 841 838 836 835 833 831 829 826 822 819 815 811 805 798 793 791 792 792 793 792 793 792 796 791 793 797 810 801 792 792 786 779 779 778 780 779 778 778 779 780 782
850 847 845 843 841 838 836 833 832 830 828 826 823 819 815 810 805 792 792 791 792 792 792 792 792 793 795 793 793 797 797 791 783 785 782 780 779 777 779 780 774 774 775 781 782
850 847 845 843 840 838 836 833 830 828 827 825 822 819 815 810 809 791 791 790 791 791 790 791 792 794 796 795 789 791 787 786 779 779 781 782 778 776 778 770 767 769 771 777 779
849 847 845 842 838 837 835 832 829 826 824 822 821 818 816 817 801 792 790 789 789 789 790 789 793 793 794 792 790 789 783 783 780 781 780 781 781 778 775 768 768 769 770 772 775
849 847 843 841 838 835 834 831 828 823 820 819 818 817 816 815 794 791 789 788 788 788 788 789 787 788 789 788 788 780 782 778 777 777 779 779 778 779 765 764 767 768 768 770 770
849 847 843 840 837 834 831 829 825 821 818 817 815 813 808 800 791 790 789 787 787 788 786 785 785 786 785 784 781 779 781 780 778 777 776 779 778 774 762 762 763 765 764 766 766
847 844 841 838 836 833 829 826 822 818 814 812 812 809 793 789 787 784 785 783 783 784 785 781 782 783 783 781 781 781 782 785 774 777 771 773 764 760 759 764 759 759 761 762 760
844 842 838 836 835 831 826 823 817 808 806 807 808 808 787 785 784 778 779 779 778 779 781 780 779 781 781 788 790 789 786 790 779 775 773 773 769 755 755 762 758 758 758 756 756
839 837 836 834 832 828 823 819 810 802 800 801 803 810 791 783 779 776 775 776 777 775 779 780 781 783 788 786 777 786 785 783 780 769 774 774 770 757 756 757 757 756 753 753 751
838 835 833 832 829 826 822 816 814 811 808 814 809 797 783 782 779 775 775 777 779 775 776 777 782 769 767 765 766 772 776 774 773 767 769 773 766 750 752 755 752 747 747 746 743
835 833 830 828 827 826 824 825 828 830 806 804 798 791 786 789 779 775 777 779 779 773 771 776 759 759 765 769 766 770 772 772 768 766 770 764 760 747 749 746 743 736 733 735 733
833 830 828 826 825 824 823 825 826 825 819 792 785 773 770 772 763 768 775 771 772 770 758 753 746 756 759 765 763 760 758 770 763 764 767 768 759 744 732 735 731 728 723 722 722
830 828 826 824 824 822 822 824 824 824 838 788 778 766 763 766 758 758 761 767 763 760 762 754 744 750 752 749 751 757 759 761 763 763 769 765 760 743 729 728 724 720 718 713 711
827 825 822 821 822 822 822 822 821 822 875 781 771 770 767 763 752 748 742 752 746 749 754 735 744 747 753 736 749 747 753 758 762 766 768 768 771 729 727 723 709 703 703 699 700
824 821 819 818 817 818 818 820 820 855 866 788 770 775 783 777 769 747 746 745 741 744 743 737 738 733 725 739 742 752 760 768 774 772 791 749 756 721 710 704 698 693 693 693 693
820 818 817 815 815 816 818 819 844 867 812 796 774 771 774 765 759 751 749 744 736 738 732 733 737 735 729 739 745 742 746 792 783 789 753 762 758 700 694 696 691 688 689 687 689
816 814 812 811 811 812 817 821 828 833 810 779 781 778 781 767 768 760 741 732 729 725 722 727 734 725 723 718 729 732 727 748 770 793 754 762 731 705 689 674 681 683 686 687 687
812 808 805 805 806 809 815 816 820 814 791 791 787 783 772 769 777 769 741 732 721 720 718 719 717 712 716 714 714 735 726 720 759 814 767 740 720 699 687 678 679 681 686 683 682
811 808 804 801 803 807 810 801 820 797 793 792 797 790 776 768 772 767 771 722 720 711 711 714 719 710 714 711 710 705 705 724 744 760 761 733 728 694 682 677 675 676 675 677 679
810 808 800 800 803 805 804 823 805 789 790 801 794 783 779 773 772 772 757 739 727 705 704 717 709 716 712 709 691 711 706 711 714 726 718 750 703 693 673 674 671 668 667 671 678
809 815 800 801 811 829 828 812 789 783 786 788 784 777 777 773 769 764 747 732 726 718 702 698 703 717 707 699 698 695 693 697 699 726 744 732 703 682 682 680 677 671 672 676 680
804 806 800 801 811 828 819 810 797 787 779 784 782 769 767 764 764 747 732 729 723 714 714 697 696 698 726 705 696 691 691 679 691 699 723 710 693 680 686 686 685 681 683 684 687
803 802 801 795 800 804 820 802 806 784 779 776 770 766 760 761 755 745 731 732 723 717 712 711 693 683 678 672 692 705 687 683 684 702 681 681 689 674 682 688 690 690 690 690 691
797 796 794 795 801 798 793 799 790 788 777 775 773 762 759 749 744 731 730 729 725 722 715 718 718 725 705 694 681 688 696 699 689 676 694 679 708 682 679 685 687 690 692 693 697
791 797 797 798 790 790 782 779 781 770 776 772 767 755 754 754 749 735 733 725 726 726 722 720 722 719 719 715 709 695 705 698 700 683 685 703 696 690 689 689 692 692 693 694 694
782 779 780 767 793 783 776 769 764 764 760 755 757 755 752 748 744 739 733 729 725 721 726 724 724 724 728 726 713 709 705 704 692 681 679 700 687 688 688 692 691 691 691 693 694